Location: Borojevi?i
(45.0486°N, 16.2297°E)
Time: 00:02:46
(UTC+00:00)

Cosmos 2034 Rocket - Pass Details

Date: 08 August 2020
Orbit: 958 x 1000 km, 82.9° (Epoch: 23 September)

Event Time Altitude Azimuth Distance (km) Brightness Sun altitude
Exits shadow 23:44:01 79° 224° (SW) 1,004 3.8 -28.4°
Maximum altitude 23:44:23 83° 278° (W) 994 3.9 -28.4°
Drops below altitude 10° 23:50:44 10° 7° (N) 2,759 7.3 -28.1°
Sets 23:53:17 0° 8° (N) 3,717 8.3 -28.0°
